Location: Mount Kobau Star Party
(49.1167°N, 119.7333°W)
Time: 12:32:16
(UTC-07:00)

ARIANE 6 FM1 Upper Stage - Pass Details

Date: 17 April 2026
Orbit: 526 x 601 km, 62.0° (Epoch: 18 May)

Event Time Altitude Azimuth Distance (km) Brightness Sun altitude
Rises 22:33:30 0° 303° (WNW) 2,693 7.4 -22.1°
Reaches altitude 10° 22:36:49 10° 332° (NNW) 1,789 6.3 -22.5°
Maximum altitude 22:38:44 13° 1° (N) 1,597 5.6 -22.6°
Drops below altitude 10° 22:40:39 10° 30° (NNE) 1,778 5.5 -22.8°
Enters shadow 22:43:23 - 56° (NE) 2,485 5.9 -23.1°
